This is the latest recevied weather packets stored in our database for station/object IK2ILW-6. If no packets are shown the sender has not sent any weather packets the latest 10 day(s).
| Time | Temp. | Humidity | Pressure | Rain* | Wind** | Luminosity | Snow |
|---|---|---|---|---|---|---|---|
| 1777691786 | 4.44° C | 73% | 1026.3 hPa | 0 mm | - | 0 W/m² | - |
| 1777691491 | 4.44° C | 73% | 1026.3 hPa | 0 mm | - | 0 W/m² | - |
| 1777691196 | 4.44° C | 72% | 1026.4 hPa | 0 mm | - | 0 W/m² | - |
| 1777690900 | 5° C | 72% | 1026.4 hPa | 0 mm | - | 0 W/m² | - |
| 1777690584 | 5° C | 70% | 1026.4 hPa | 0 mm | - | 0 W/m² | - |
| 1777690294 | 5° C | 69% | 1026.4 hPa | 0 mm | - | 0 W/m² | - |
| 1777689998 | 5.56° C | 69% | 1026.4 hPa | 0 mm | - | 0 W/m² | - |
| 1777689683 | 5.56° C | 65% | 1026.4 hPa | 0 mm | - | 0 W/m² | - |
| 1777689389 | 5.56° C | 61% | 1026.4 hPa | 0 mm | - | 0 W/m² | - |
| 1777689093 | 5° C | 65% | 1026.4 hPa | 0 mm | - | 0 W/m² | - |
| 1777688798 | 5.56° C | 68% | 1026.4 hPa | 0 mm | - | 0 W/m² | - |
| 1777688186 | 6.11° C | 62% | 1026.5 hPa | 0 mm | - | 0 W/m² | - |
| 1777687891 | 6.11° C | 62% | 1026.4 hPa | 0 mm | - | 0 W/m² | - |
| 1777674085 | 6.11° C | 68% | 1026.9 hPa | 0 mm | - | 0 W/m² | - |
| 1777673790 | 6.11° C | 68% | 1026.9 hPa | 0 mm | - | 0 W/m² | - |
| 1777673494 | 6.11° C | 64% | 1026.9 hPa | 0 mm | - | 0 W/m² | - |
| 1777673199 | 5.56° C | 65% | 1026.8 hPa | 0 mm | - | 0 W/m² | - |
| 1777672587 | 5.56° C | 66% | 1026.8 hPa | 0 mm | - | 0 W/m² | - |
| 1777672292 | 5.56° C | 64% | 1026.7 hPa | 0 mm | - | 0 W/m² | - |
| 1777671996 | 5.56° C | 64% | 1026.8 hPa | 0 mm | - | 0 W/m² | - |
| 1777671387 | 6.11° C | 64% | 1026.8 hPa | 0 mm | - | 0 W/m² | - |
| 1777671091 | 6.11° C | 65% | 1026.8 hPa | 0 mm | - | 0 W/m² | - |
| 1777670795 | 6.11° C | 65% | 1026.8 hPa | 0 mm | - | 0 W/m² | - |
| 1777670499 | 5.56° C | 65% | 1026.9 hPa | 0 mm | - | 0 W/m² | - |
| 1777670184 | 5.56° C | 65% | 1026.9 hPa | 0 mm | - | 0 W/m² | - |
* Rain latest hour (hover to see other rain measurements)
** Current wind speed in m/s (hover to see current wind gust speed)